IGA733 EPRZ-LTFJ

Flight info

Callsign IGA733
Flight time 1h 41m
Altitude 40000
Route LUXA2R LUXAR DCT PODAN DCT KEKED DCT VERIG DCT BULEN L605 RIXEN UN616 GINLI
Aircraft B76F/H-SDE3FGHIJ3J7M3P2RWXY/LB1D1

Departure

Time 2026-04-22 20:12
Airport Rzeszów-Jasionka Airport (EPRZ)

Arrival

Time 2026-04-22 21:53
Airport Istanbul Sabiha Gökçen International Airport (LTFJ)
Time Latitude Longitude Altitude Speed Heading
2026-04-22 19:40 50.11396 22.02787 688 ft 0 kts 360°
2026-04-22 20:01 50.11395 22.02787 688 ft 0 kts 360°
2026-04-22 20:01 50.11393 22.02787 688 ft 2 kts
2026-04-22 20:01 50.11377 22.02787 688 ft 2 kts 360°
2026-04-22 20:02 50.11362 22.02787 688 ft 2 kts
2026-04-22 20:02 50.11348 22.02787 688 ft 2 kts
2026-04-22 20:02 50.11333 22.02787 687 ft 2 kts 360°
2026-04-22 20:02 50.11318 22.02787 687 ft 2 kts
2026-04-22 20:03 50.11304 22.02779 687 ft 2 kts 48°
2026-04-22 20:03 50.11298 22.02760 687 ft 2 kts 85°
2026-04-22 20:03 50.11299 22.02737 687 ft 2 kts 94°
2026-04-22 20:03 50.11299 22.02713 687 ft 2 kts 90°
2026-04-22 20:04 50.11299 22.02690 687 ft 2 kts 91°
2026-04-22 20:04 50.11299 22.02681 687 ft 0 kts 91°
2026-04-22 20:06 50.11299 22.02711 687 ft 5 kts 93°
2026-04-22 20:07 50.11275 22.02765 686 ft 7 kts 164°
2026-04-22 20:07 50.11211 22.02743 685 ft 11 kts 197°
2026-04-22 20:07 50.11114 22.02732 683 ft 16 kts 182°
2026-04-22 20:07 50.11006 22.02730 683 ft 11 kts 178°
2026-04-22 20:08 50.10957 22.02814 680 ft 14 kts 91°
2026-04-22 20:08 50.10955 22.02988 680 ft 17 kts 92°
2026-04-22 20:08 50.10952 22.03200 678 ft 21 kts 89°
2026-04-22 20:08 50.10949 22.03458 675 ft 25 kts 91°
2026-04-22 20:09 50.10944 22.03755 671 ft 29 kts 91°
2026-04-22 20:09 50.10943 22.04091 668 ft 33 kts 90°
2026-04-22 20:09 50.10931 22.04421 665 ft 21 kts 104°
2026-04-22 20:09 50.10939 22.04561 665 ft 4 kts 30°
2026-04-22 20:10 50.10955 22.04557 665 ft 0 kts 324°
2026-04-22 20:10 50.10957 22.04555 665 ft 0 kts 319°
2026-04-22 20:10 50.10962 22.04541 666 ft 1 kts 290°
2026-04-22 20:10 50.10962 22.04530 666 ft 0 kts 266°
2026-04-22 20:11 50.10962 22.04524 666 ft 2 kts 266°
2026-04-22 20:11 50.10939 22.04441 665 ft 16 kts 255°
2026-04-22 20:11 50.10937 22.04393 665 ft 4 kts 272°
2026-04-22 20:11 50.10938 22.04351 665 ft 2 kts 270°
2026-04-22 20:12 50.10938 22.04291 665 ft 11 kts 270°
2026-04-22 20:12 50.10944 22.03790 671 ft 86 kts 271°
2026-04-22 20:12 50.10957 22.02469 774 ft 150 kts 271°
2026-04-22 20:12 50.10989 22.00785 1573 ft 164 kts 275°
2026-04-22 20:13 50.11024 21.99049 2516 ft 168 kts 276°
2026-04-22 20:13 50.11051 21.97296 3496 ft 165 kts 277°
2026-04-22 20:13 50.11087 21.95389 4034 ft 190 kts 276°
2026-04-22 20:13 50.11118 21.93223 4733 ft 213 kts 276°
2026-04-22 20:14 50.11145 21.90854 5576 ft 231 kts 276°
2026-04-22 20:14 50.11175 21.88208 6080 ft 266 kts 276°
2026-04-22 20:14 50.11203 21.85239 7202 ft 277 kts 275°
2026-04-22 20:14 50.11093 21.82340 8677 ft 280 kts 260°
2026-04-22 20:15 50.10191 21.79587 9851 ft 298 kts 231°
2026-04-22 20:15 50.08517 21.77630 10890 ft 316 kts 206°
2026-04-22 20:15 50.06348 21.76656 11687 ft 337 kts 194°
2026-04-22 20:15 50.04077 21.75480 12509 ft 358 kts 201°
2026-04-22 20:16 50.01658 21.74180 13333 ft 378 kts 199°
2026-04-22 20:16 49.99149 21.72867 14427 ft 389 kts 198°
2026-04-22 20:16 49.96596 21.71558 15564 ft 397 kts 198°
2026-04-22 20:16 49.93941 21.70207 16618 ft 406 kts 197°
2026-04-22 20:17 49.91230 21.68835 17626 ft 415 kts 197°
2026-04-22 20:17 49.88461 21.67438 18591 ft 424 kts 197°
2026-04-22 20:17 49.85686 21.66041 19557 ft 431 kts 197°
2026-04-22 20:17 49.82802 21.64591 20543 ft 437 kts 196°
2026-04-22 20:18 49.79900 21.63135 21414 ft 444 kts 196°
2026-04-22 20:18 49.76979 21.61671 22345 ft 449 kts 196°
2026-04-22 20:18 49.73941 21.60151 23147 ft 457 kts 195°
2026-04-22 20:18 49.70910 21.58636 24000 ft 463 kts 195°
2026-04-22 20:19 49.67846 21.57106 24767 ft 469 kts 195°
2026-04-22 20:19 49.64718 21.55547 25596 ft 474 kts 195°
2026-04-22 20:19 49.61556 21.53974 26335 ft 480 kts 194°
2026-04-22 20:19 49.58368 21.52387 27105 ft 484 kts 194°
2026-04-22 20:20 49.55151 21.50791 27772 ft 490 kts 194°
2026-04-22 20:20 49.51920 21.49189 28479 ft 495 kts 194°
2026-04-22 20:20 49.48624 21.47558 29143 ft 500 kts 193°
2026-04-22 20:20 49.45337 21.45933 29770 ft 505 kts 193°
2026-04-22 20:21 49.41957 21.44412 30308 ft 507 kts 187°
2026-04-22 20:21 49.38474 21.43577 31015 ft 503 kts 181°
2026-04-22 20:21 49.34988 21.42945 31518 ft 510 kts 181°
2026-04-22 20:21 49.31445 21.42316 32109 ft 512 kts 181°
2026-04-22 20:22 49.27917 21.41699 32884 ft 511 kts 180°
2026-04-22 20:22 49.24387 21.41093 33556 ft 511 kts 180°
2026-04-22 20:22 49.20829 21.40489 34267 ft 509 kts 180°
2026-04-22 20:22 49.17332 21.39897 34897 ft 507 kts 180°
2026-04-22 20:23 49.13839 21.39312 35468 ft 504 kts 181°
2026-04-22 20:23 49.10341 21.38730 35957 ft 502 kts 181°
2026-04-22 20:23 49.06868 21.38149 36486 ft 499 kts 181°
2026-04-22 20:23 49.03407 21.37574 36835 ft 500 kts 181°
2026-04-22 20:24 48.99921 21.36993 37209 ft 500 kts 182°
2026-04-22 20:24 48.96471 21.36421 37543 ft 500 kts 182°
2026-04-22 20:24 48.93024 21.35847 38029 ft 496 kts 183°
2026-04-22 20:24 48.89601 21.35282 38280 ft 498 kts 183°
2026-04-22 20:25 48.86165 21.34711 38664 ft 496 kts 182°
2026-04-22 20:25 48.82696 21.34138 39093 ft 494 kts 183°
2026-04-22 20:25 48.79317 21.33581 39380 ft 494 kts 183°
2026-04-22 20:25 48.75878 21.33014 39697 ft 494 kts 184°
2026-04-22 20:26 48.72458 21.32450 39997 ft 494 kts 184°
2026-04-22 20:26 48.69050 21.31890 40138 ft 491 kts 183°
2026-04-22 20:26 48.65675 21.31334 40123 ft 488 kts 184°
2026-04-22 20:27 48.58897 21.30225 40131 ft 493 kts 184°
2026-04-22 20:27 48.52068 21.29725 40141 ft 489 kts 171°
2026-04-22 20:28 48.45419 21.31527 40119 ft 484 kts 165°
2026-04-22 20:28 48.38868 21.33597 40113 ft 483 kts 165°
2026-04-22 20:29 48.32297 21.35720 40115 ft 484 kts 165°
2026-04-22 20:29 48.25727 21.37853 40113 ft 484 kts 165°
2026-04-22 20:30 48.19131 21.39998 40115 ft 483 kts 165°
2026-04-22 20:30 48.12583 21.42123 40114 ft 484 kts 165°
2026-04-22 20:31 48.06012 21.44250 40112 ft 483 kts 165°
2026-04-22 20:31 47.99459 21.46366 40117 ft 483 kts 165°
2026-04-22 20:32 47.92885 21.48485 40102 ft 484 kts 165°
2026-04-22 20:32 47.86321 21.50594 40102 ft 485 kts 165°
2026-04-22 20:33 47.79748 21.52701 40110 ft 484 kts 165°
2026-04-22 20:33 47.73186 21.54798 40112 ft 484 kts 165°
2026-04-22 20:34 47.66625 21.56890 40108 ft 485 kts 165°
2026-04-22 20:34 47.59994 21.59000 40102 ft 485 kts 165°
2026-04-22 20:35 47.53404 21.61089 40105 ft 486 kts 165°
2026-04-22 20:35 47.46833 21.63168 40097 ft 485 kts 165°
2026-04-22 20:36 47.40243 21.65248 40108 ft 485 kts 166°
2026-04-22 20:36 47.33680 21.67314 40101 ft 486 kts 166°
2026-04-22 20:37 47.27081 21.69386 40108 ft 487 kts 166°
2026-04-22 20:37 47.20504 21.71702 40110 ft 484 kts 158°
2026-04-22 20:38 47.14629 21.76333 40127 ft 478 kts 139°
2026-04-22 20:38 47.09568 21.82571 40106 ft 477 kts 137°
2026-04-22 20:39 47.04576 21.88909 40104 ft 476 kts 136°
2026-04-22 20:39 46.99598 21.95284 40097 ft 476 kts 136°
2026-04-22 20:40 46.94598 22.01697 40100 ft 478 kts 136°
2026-04-22 20:40 46.89607 22.08095 40096 ft 478 kts 136°
2026-04-22 20:41 46.84624 22.14469 40089 ft 477 kts 136°
2026-04-22 20:41 46.79649 22.20815 40086 ft 477 kts 136°
2026-04-22 20:42 46.74647 22.27183 40095 ft 478 kts 136°
2026-04-22 20:42 46.69660 22.33516 40081 ft 478 kts 136°
2026-04-22 20:43 46.64659 22.39849 40081 ft 479 kts 136°
2026-04-22 20:43 46.59648 22.46180 40086 ft 479 kts 136°
2026-04-22 20:44 46.54588 22.52554 40086 ft 479 kts 136°
2026-04-22 20:44 46.49586 22.58841 40085 ft 477 kts 136°
2026-04-22 20:45 46.44579 22.65118 40070 ft 478 kts 137°
2026-04-22 20:45 46.39523 22.71441 40067 ft 479 kts 137°
2026-04-22 20:46 46.31984 22.80839 40072 ft 480 kts 137°
2026-04-22 20:46 46.26923 22.87127 40073 ft 480 kts 138°
2026-04-22 20:47 46.21871 22.93389 40081 ft 479 kts 138°
2026-04-22 20:47 46.16836 22.99613 40078 ft 479 kts 138°
2026-04-22 20:48 46.11795 23.05830 40081 ft 479 kts 138°
2026-04-22 20:48 46.06712 23.12084 40082 ft 480 kts 138°
2026-04-22 20:49 46.01660 23.18282 40084 ft 480 kts 138°
2026-04-22 20:49 45.96584 23.24496 40094 ft 479 kts 138°
2026-04-22 20:50 45.91513 23.30688 40095 ft 479 kts 138°
2026-04-22 20:50 45.86425 23.36886 40080 ft 480 kts 138°
2026-04-22 20:51 45.81330 23.43074 40071 ft 482 kts 138°
2026-04-22 20:51 45.76232 23.49252 40057 ft 482 kts 138°
2026-04-22 20:52 45.71154 23.55392 40047 ft 481 kts 138°
2026-04-22 20:52 45.66030 23.61571 40037 ft 483 kts 139°
2026-04-22 20:53 45.60896 23.67747 40025 ft 482 kts 139°
2026-04-22 20:53 45.55805 23.73856 40003 ft 483 kts 139°
2026-04-22 20:54 45.50643 23.80035 39982 ft 484 kts 139°
2026-04-22 20:54 45.45499 23.86176 39984 ft 483 kts 139°
2026-04-22 20:55 45.40358 23.92300 40007 ft 484 kts 140°
2026-04-22 20:55 45.35202 23.98427 40019 ft 484 kts 140°
2026-04-22 20:56 45.30076 24.04504 40034 ft 482 kts 140°
2026-04-22 20:56 45.24908 24.10613 40051 ft 485 kts 140°
2026-04-22 20:57 45.19734 24.16716 40060 ft 486 kts 140°
2026-04-22 20:57 45.14571 24.22792 40068 ft 486 kts 140°
2026-04-22 20:58 45.09392 24.28870 40080 ft 485 kts 140°
2026-04-22 20:58 45.04214 24.34934 40084 ft 485 kts 140°
2026-04-22 20:59 44.99037 24.40980 40084 ft 485 kts 140°
2026-04-22 20:59 44.93836 24.47040 40083 ft 485 kts 140°
2026-04-22 21:00 44.88640 24.53081 40075 ft 486 kts 140°
2026-04-22 21:00 44.83431 24.59121 40076 ft 485 kts 140°
2026-04-22 21:01 44.78217 24.65152 40083 ft 486 kts 141°
2026-04-22 21:01 44.72985 24.71191 40080 ft 486 kts 141°
2026-04-22 21:02 44.67757 24.77210 40081 ft 486 kts 141°
2026-04-22 21:02 44.62529 24.83213 40082 ft 487 kts 141°
2026-04-22 21:03 44.57296 24.89208 40084 ft 487 kts 141°
2026-04-22 21:03 44.52079 24.95171 40088 ft 488 kts 141°
2026-04-22 21:04 44.46812 25.01177 40097 ft 488 kts 141°
2026-04-22 21:04 44.41579 25.07130 40092 ft 487 kts 141°
2026-04-22 21:05 44.36344 25.13070 40093 ft 487 kts 142°
2026-04-22 21:05 44.31069 25.19042 40092 ft 488 kts 142°
2026-04-22 21:06 44.25819 25.24972 40091 ft 488 kts 142°
2026-04-22 21:06 44.20549 25.30910 40092 ft 487 kts 142°
2026-04-22 21:07 44.15297 25.36813 40090 ft 488 kts 142°
2026-04-22 21:07 44.09985 25.42769 40089 ft 488 kts 142°
2026-04-22 21:08 44.04695 25.48688 40086 ft 488 kts 142°
2026-04-22 21:08 43.99421 25.54574 40087 ft 489 kts 142°
2026-04-22 21:09 43.94129 25.60467 40087 ft 489 kts 142°
2026-04-22 21:09 43.88814 25.66371 40086 ft 488 kts 142°
2026-04-22 21:10 43.83527 25.72231 40084 ft 488 kts 143°
2026-04-22 21:10 43.78215 25.78104 40087 ft 488 kts 143°
2026-04-22 21:11 43.73391 25.84615 40101 ft 490 kts 128°
2026-04-22 21:11 43.69411 25.92235 40084 ft 493 kts 127°
2026-04-22 21:12 43.65378 25.99899 40077 ft 492 kts 127°
2026-04-22 21:12 43.61349 26.07522 40080 ft 493 kts 127°
2026-04-22 21:13 43.57326 26.15105 40075 ft 492 kts 127°
2026-04-22 21:13 43.53278 26.22718 40074 ft 492 kts 127°
2026-04-22 21:14 43.49238 26.30293 40072 ft 492 kts 127°
2026-04-22 21:14 43.45207 26.37833 40073 ft 493 kts 127°
2026-04-22 21:15 43.41135 26.45431 40072 ft 493 kts 127°
2026-04-22 21:15 43.37073 26.52988 40078 ft 494 kts 127°
2026-04-22 21:16 43.33012 26.60525 40080 ft 492 kts 127°
2026-04-22 21:16 43.28929 26.68084 40079 ft 493 kts 128°
2026-04-22 21:17 43.24862 26.75594 40082 ft 494 kts 128°
2026-04-22 21:17 43.20748 26.83170 40082 ft 494 kts 128°
2026-04-22 21:18 43.16656 26.90687 40077 ft 494 kts 128°
2026-04-22 21:18 43.12556 26.98202 40074 ft 494 kts 128°
2026-04-22 21:19 43.08435 27.05651 40070 ft 494 kts 129°
2026-04-22 21:19 43.04204 27.13056 40076 ft 495 kts 129°
2026-04-22 21:20 42.99952 27.20491 40082 ft 495 kts 129°
2026-04-22 21:20 42.95699 27.27909 40080 ft 494 kts 129°
2026-04-22 21:21 42.91477 27.35254 40077 ft 495 kts 129°
2026-04-22 21:21 42.87187 27.42700 40077 ft 495 kts 129°
2026-04-22 21:22 42.82926 27.50078 40076 ft 494 kts 129°
2026-04-22 21:22 42.78663 27.57440 40079 ft 495 kts 129°
2026-04-22 21:23 42.74397 27.64789 40070 ft 496 kts 129°
2026-04-22 21:23 42.70128 27.72125 40059 ft 493 kts 130°
2026-04-22 21:24 42.65869 27.79426 40067 ft 495 kts 130°
2026-04-22 21:24 42.61581 27.86757 40076 ft 494 kts 130°
2026-04-22 21:25 42.57314 27.94036 40080 ft 494 kts 130°
2026-04-22 21:25 42.53027 28.01331 40084 ft 495 kts 130°
2026-04-22 21:26 42.48753 28.08587 40079 ft 496 kts 130°
2026-04-22 21:26 42.44458 28.15869 40082 ft 494 kts 130°
2026-04-22 21:27 42.40152 28.23150 40080 ft 494 kts 130°
2026-04-22 21:27 42.35877 28.30361 40079 ft 494 kts 131°
2026-04-22 21:28 42.31571 28.37607 40078 ft 495 kts 131°
2026-04-22 21:28 42.27254 28.44853 40076 ft 495 kts 131°
2026-04-22 21:29 42.22939 28.52078 40079 ft 495 kts 131°
2026-04-22 21:29 42.18629 28.59279 40074 ft 490 kts 131°
2026-04-22 21:30 42.16528 28.62786 40063 ft 476 kts 131°
2026-04-22 21:30 42.14489 28.66186 40058 ft 461 kts 132°
2026-04-22 21:30 42.12379 28.69322 40038 ft 449 kts 141°
2026-04-22 21:30 42.09929 28.71942 40053 ft 446 kts 151°
2026-04-22 21:31 42.05080 28.75139 39606 ft 453 kts 167°
2026-04-22 21:31 42.02055 28.76125 38866 ft 451 kts 177°
2026-04-22 21:31 41.98951 28.76559 38202 ft 443 kts 181°
2026-04-22 21:32 41.95891 28.76844 37615 ft 439 kts 182°
2026-04-22 21:32 41.92852 28.77072 37025 ft 434 kts 184°
2026-04-22 21:32 41.89878 28.77254 36414 ft 429 kts 184°
2026-04-22 21:32 41.86876 28.77410 35818 ft 427 kts 185°
2026-04-22 21:33 41.83860 28.77548 35236 ft 429 kts 186°
2026-04-22 21:33 41.80800 28.77637 34644 ft 432 kts 190°
2026-04-22 21:33 41.77880 28.77217 34089 ft 425 kts 200°
2026-04-22 21:33 41.75079 28.76132 33548 ft 412 kts 210°
2026-04-22 21:34 41.72566 28.74482 33004 ft 396 kts 218°
2026-04-22 21:34 41.70191 28.72609 32377 ft 390 kts 219°
2026-04-22 21:34 41.67893 28.70768 31733 ft 386 kts 219°
2026-04-22 21:34 41.65604 28.68906 31037 ft 383 kts 220°
2026-04-22 21:35 41.63294 28.67005 30227 ft 384 kts 219°
2026-04-22 21:35 41.60990 28.65100 29489 ft 388 kts 219°
2026-04-22 21:35 41.58697 28.63202 28901 ft 387 kts 219°
2026-04-22 21:35 41.56451 28.61343 28342 ft 380 kts 219°
2026-04-22 21:36 41.54136 28.59711 27725 ft 384 kts 210°
2026-04-22 21:36 41.51557 28.58660 26947 ft 394 kts 200°
2026-04-22 21:36 41.48809 28.58279 26154 ft 399 kts 188°
2026-04-22 21:36 41.46062 28.58598 25359 ft 401 kts 178°
2026-04-22 21:37 41.43348 28.59621 24583 ft 405 kts 168°
2026-04-22 21:37 41.40707 28.60727 23810 ft 394 kts 176°
2026-04-22 21:37 41.38076 28.61361 23102 ft 384 kts 181°
2026-04-22 21:37 41.35411 28.61764 22400 ft 380 kts 183°
2026-04-22 21:38 41.32809 28.62028 21728 ft 377 kts 184°
2026-04-22 21:38 41.30198 28.62223 21037 ft 373 kts 185°
2026-04-22 21:38 41.27622 28.62367 20369 ft 370 kts 185°
2026-04-22 21:38 41.25089 28.62480 19710 ft 366 kts 185°
2026-04-22 21:39 41.22531 28.62579 19054 ft 363 kts 185°
2026-04-22 21:39 41.20026 28.62697 18409 ft 360 kts 182°
2026-04-22 21:39 41.17578 28.63246 18312 ft 352 kts 175°
2026-04-22 21:39 41.15155 28.63817 18320 ft 360 kts 178°
2026-04-22 21:40 41.12638 28.64276 17848 ft 371 kts 183°
2026-04-22 21:40 41.10113 28.64071 17099 ft 352 kts 195°
2026-04-22 21:40 41.07698 28.63650 16390 ft 351 kts 189°
2026-04-22 21:40 41.05268 28.63471 15711 ft 354 kts 187°
2026-04-22 21:41 41.02784 28.63384 15013 ft 356 kts 184°
2026-04-22 21:41 41.00304 28.63366 14315 ft 358 kts 183°
2026-04-22 21:41 40.97821 28.63389 13625 ft 355 kts 182°
2026-04-22 21:41 40.95353 28.63435 12992 ft 352 kts 181°
2026-04-22 21:42 40.92934 28.63490 12371 ft 348 kts 180°
2026-04-22 21:42 40.90505 28.63554 11735 ft 347 kts 180°
2026-04-22 21:42 40.88131 28.63619 11116 ft 343 kts 179°
2026-04-22 21:42 40.85746 28.63686 10469 ft 340 kts 179°
2026-04-22 21:43 40.83453 28.63752 10001 ft 324 kts 179°
2026-04-22 21:43 40.81230 28.63816 9623 ft 307 kts 179°
2026-04-22 21:43 40.79149 28.63881 9296 ft 291 kts 177°
2026-04-22 21:43 40.77265 28.64487 9264 ft 278 kts 150°
2026-04-22 21:44 40.75765 28.66140 8987 ft 288 kts 124°
2026-04-22 21:44 40.74968 28.68496 8530 ft 277 kts 97°
2026-04-22 21:44 40.75019 28.70937 8076 ft 267 kts 76°
2026-04-22 21:44 40.75406 28.73313 7571 ft 263 kts 77°
2026-04-22 21:45 40.75756 28.75652 7059 ft 261 kts 77°
2026-04-22 21:45 40.76100 28.77969 6554 ft 258 kts 77°
2026-04-22 21:45 40.76438 28.80282 6041 ft 255 kts 77°
2026-04-22 21:45 40.76772 28.82567 5534 ft 253 kts 77°
2026-04-22 21:46 40.77097 28.84802 5038 ft 250 kts 78°
2026-04-22 21:46 40.77422 28.87048 4520 ft 247 kts 78°
2026-04-22 21:46 40.77741 28.89256 4010 ft 245 kts 78°
2026-04-22 21:46 40.78052 28.91416 3570 ft 241 kts 78°
2026-04-22 21:47 40.78363 28.93576 3335 ft 239 kts 78°
2026-04-22 21:47 40.78673 28.95739 3005 ft 241 kts 78°
2026-04-22 21:47 40.78978 28.97868 2967 ft 230 kts 78°
2026-04-22 21:47 40.79266 28.99882 2962 ft 219 kts 78°
2026-04-22 21:48 40.79545 29.01831 2962 ft 210 kts 78°
2026-04-22 21:48 40.79809 29.03685 2960 ft 201 kts 78°
2026-04-22 21:48 40.80059 29.05436 2977 ft 191 kts 78°
2026-04-22 21:48 40.80300 29.07126 2968 ft 188 kts 78°
2026-04-22 21:49 40.80595 29.08802 2969 ft 183 kts 68°
2026-04-22 21:49 40.81130 29.10285 2967 ft 174 kts 64°
2026-04-22 21:49 40.81637 29.11671 3002 ft 163 kts 64°
2026-04-22 21:49 40.82136 29.13030 2967 ft 162 kts 64°
2026-04-22 21:50 40.82623 29.14351 2943 ft 162 kts 64°
2026-04-22 21:50 40.83128 29.15721 2709 ft 168 kts 64°
2026-04-22 21:50 40.83644 29.17118 2465 ft 171 kts 64°
2026-04-22 21:50 40.84148 29.18481 2260 ft 158 kts 64°
2026-04-22 21:51 40.84614 29.19745 2031 ft 154 kts 63°
2026-04-22 21:51 40.85090 29.21026 1822 ft 155 kts 64°
2026-04-22 21:51 40.85563 29.22308 1596 ft 156 kts 63°
2026-04-22 21:52 40.86518 29.24873 1161 ft 152 kts 64°
2026-04-22 21:52 40.86955 29.26093 973 ft 140 kts 63°
2026-04-22 21:52 40.87372 29.27197 792 ft 132 kts 63°
2026-04-22 21:52 40.87777 29.28301 650 ft 135 kts 63°
2026-04-22 21:53 40.88191 29.29446 503 ft 139 kts 63°
2026-04-22 21:53 40.88604 29.30584 328 ft 133 kts 62°
2026-04-22 21:53 40.88907 29.31407 325 ft 71 kts 64°
2026-04-22 21:53 40.89053 29.31802 325 ft 27 kts 64°
2026-04-22 21:54 40.89101 29.31934 324 ft 14 kts 64°
2026-04-22 21:54 40.89157 29.32083 324 ft 21 kts 64°
2026-04-22 21:54 40.89238 29.32276 324 ft 27 kts 51°
2026-04-22 21:54 40.89364 29.32417 324 ft 16 kts 33°
2026-04-22 21:55 40.89442 29.32482 324 ft 10 kts 31°
2026-04-22 21:55 40.89489 29.32478 324 ft 6 kts 314°
2026-04-22 21:55 40.89493 29.32443 324 ft 0 kts 252°
2026-04-22 21:55 40.89492 29.32440 324 ft 0 kts 252°
2026-04-22 21:57 40.89490 29.32427 324 ft 4 kts 259°
2026-04-22 21:57 40.89504 29.32376 324 ft 7 kts 317°
2026-04-22 21:57 40.89556 29.32326 324 ft 10 kts 314°
2026-04-22 21:58 40.89632 29.32265 324 ft 14 kts 334°
2026-04-22 21:58 40.89739 29.32198 324 ft 19 kts 334°
2026-04-22 21:58 40.89871 29.32114 324 ft 20 kts 334°
2026-04-22 21:58 40.89991 29.32040 324 ft 16 kts 335°
2026-04-22 21:59 40.90061 29.31961 324 ft 13 kts 261°
2026-04-22 21:59 40.90019 29.31838 324 ft 17 kts 244°
2026-04-22 21:59 40.89958 29.31669 324 ft 22 kts 244°
2026-04-22 21:59 40.89889 29.31480 324 ft 18 kts 244°
2026-04-22 22:00 40.89827 29.31308 324 ft 22 kts 244°
2026-04-22 22:00 40.89762 29.31127 324 ft 22 kts 244°
2026-04-22 22:00 40.89698 29.30950 325 ft 23 kts 245°
2026-04-22 22:00 40.89652 29.30825 324 ft 10 kts 239°
2026-04-22 22:01 40.89599 29.30817 325 ft 6 kts 156°
2026-04-22 22:01 40.89565 29.30838 325 ft 0 kts 154°
2026-04-22 22:01 40.89564 29.30838 325 ft 0 kts 154°